BEIDOU-3 M7 1 43245U 18029A 21111.61701373 -.00000081 00000-0 00000+0 0 9991 2 43245 55.3178 4.8625 0001416 7.7233 137.6069 1.86232903 20837 BEIDOU-3 M8 1 43246U 18029B 21111.60049264 -.00000082 00000-0 10000-3 0 9991 2 43246 55.3144 4.8940 0005236 353.9165 186.4712 1.86233055 20820 CZ-3B R/B 1 43247U 18029C 21111.14281855 .00000373 00000-0 16568-3 0 9992 2 43247 54.9573 102.7632 5520468 183.8272 169.1243 4.69689922 51835 YZ-1 R/B 1 43248U 18029D 21110.32213672 -.00000077 00000-0 00000-0 0 9997 2 43248 55.6191 8.8764 0095536 7.4313 352.7430 1.77726939 19868